Skip Page Navigation
NASA JPL Caltech
NASA Logo - Jet Propulsion Laboratory + View the NASA Portal
+ Center for Near-Earth Object Studies
JPL Home Earth Solar System Stars & Galaxies Technology
JPL Solar System Dynamics
BODIES ORBITS EPHEMERIDES TOOLS PHYSICAL DATA DISCOVERY FAQ SITE MAP
IMPORTANT: The SSD Announcement email list is now available. Major changes are coming in the near future, including possible hostname and/or URL changes. To be notified of such changes, subscribe to this email list.

Please visit this page for more details.


JPL Small-Body Database Browser
Search: [ help ]  
393058 (2013 AL61)
Classification: Main-belt Asteroid          SPK-ID: 2393058
Ephemeris | Orbit Diagram | Orbital Elements | Mission Design | Physical Parameters | Discovery Circumstances | Close-Approach Data ]

[ show orbit diagram ]
Orbital Elements at Epoch 2459000.5 (2020-May-31.0) TDB
Reference: JPL 13 (heliocentric ecliptic J2000)
 Element Value Uncertainty (1-sigma)   Units 
e .1271180602434425 5.8568e-08  
a 3.06413345930215 4.1457e-08 au
q 2.674626757628631 1.8175e-07 au
i 12.50390009647942 7.3665e-06 deg
node 79.89830641505793 2.7115e-05 deg
peri 325.8873559841717 3.9421e-05 deg
M 186.0282665860853 2.6753e-05 deg
tp 2459947.251785001395
(2023-Jan-02.75178500)
0.00015066 TDB
period 1959.115058016901
5.36
3.976e-05
1.089e-07
d
yr
n .1837564356043525 3.7293e-09 deg/d
Q 3.453640160975668 4.6727e-08 au
  Orbit Determination Parameters
   # obs. used (total)      147  
   data-arc span      6266 days (17.16 yr)  
   first obs. used      2001-12-14  
   last obs. used      2019-02-09  
   planetary ephem.      DE431  
   SB-pert. ephem.      SB431-N16  
   condition code      0  
   norm. resid. RMS      .57617  
   source      ORB  
   producer      Otto Matic  
   solution date      2020-Feb-26 04:47:46  

Additional Information
 Earth MOID = 1.69542 au 
 Jupiter MOID = 1.9235 au 
 T_jup = 3.184 
[ show covariance matrix ]

Ephemeris | Orbit Diagram | Orbital Elements | Mission Design | Physical Parameters | Discovery Circumstances | Close-Approach Data ]

Physical Parameter Table
Parameter Symbol Value Units Sigma Reference Notes
absolute magnitude H 16.1   n/a MPO434459  

393058 (2013 AL61)          Discovered 2001-Dec-14 by LINEAR at Socorro
Reference: Last Updated: 2014-04-17

[ show close-approach data ]
Alternate Designations
 2013 AL61 = 2001 XY45 = 2006 VQ153 = 2011 SV209 
Ephemeris | Orbit Diagram | Orbital Elements | Mission Design | Physical Parameters | Discovery Circumstances | Close-Approach Data ]
ABOUT SSD CREDITS/AWARDS PRIVACY/COPYRIGHT GLOSSARY LINKS
FirstGov 2020-Apr-04 07:02 UT
(server date/time)  
NASA Home Page
Site Manager:   Ryan S. Park
Webmaster  Alan B. Chamberlin